Location: Dumpton Point
(51.3500°N, 1.4433°E)
Time: 09:40:36
(UTC+00:00)

Transit 2A Rocket - All Passes

Search period start: 30 September 2022 00:00
Search period end: 10 October 2022 00:00
Orbit: 593 x 908 km, 66.7° (Epoch: 29 September)

Date Brightness Start Highest point End Pass type
(mag) Time Alt. Az. Time Alt. Az. Time Alt. Az.
30 Sep - 05:55:26 10° S 05:59:12 30° ESE 06:03:00 10° NE daylight
30 Sep - 07:37:26 10° WSW 07:41:34 43° NW 07:45:47 10° NNE daylight
30 Sep - 09:22:42 10° NW 09:25:14 15° NNW 09:27:50 10° NNE daylight
30 Sep - 11:07:52 10° NNW 11:09:43 12° N 11:11:35 10° NNE daylight
30 Sep - 12:50:04 10° NNW 12:53:51 24° NNE 12:57:52 10° E daylight
30 Sep - 14:32:11 10° NW 14:36:54 86° SW 14:42:03 10° SE daylight
30 Sep - 16:16:00 10° WNW 16:18:52 16° WSW 16:21:51 10° SW daylight
01 Oct - 05:13:40 10° SSE 05:16:34 18° ESE 05:19:30 10° ENE visible
01 Oct - 06:54:16 10° SW 06:58:34 69° NW 07:02:57 10° NE daylight
01 Oct - 08:38:49 10° WNW 08:41:53 19° NNW 08:45:03 10° NNE daylight
01 Oct - 10:24:38 10° NNW 10:26:15 12° N 10:27:54 10° NNE daylight
01 Oct - 12:07:19 10° NNW 12:10:35 19° NNE 12:14:02 10° ENE daylight
01 Oct - 13:49:19 10° NNW 13:53:58 62° NE 13:59:01 10° SE daylight
01 Oct - 15:32:17 10° WNW 15:36:13 25° WSW 15:40:26 10° SSW daylight
02 Oct - 06:11:23 10° SSW 06:15:40 72° SE 06:20:01 10° NE daylight
02 Oct - 07:55:04 10° W 07:58:38 24° NNW 08:02:18 10° NNE daylight
02 Oct - 09:40:59 10° NNW 09:42:47 12° N 09:44:36 10° NNE daylight
02 Oct - 11:24:32 10° NNW 11:27:15 15° NNE 11:30:03 10° NE daylight
02 Oct - 13:06:31 10° NNW 13:10:57 42° NE 13:15:44 10° ESE daylight
02 Oct - 14:49:02 10° NW 14:53:30 40° WSW 14:58:20 10° S daylight
03 Oct - 05:28:49 10° S 05:32:52 41° ESE 05:36:59 10° NE daylight
03 Oct - 07:11:31 10° WSW 07:15:28 34° NW 07:19:31 10° NNE daylight
03 Oct - 08:57:06 10° NW 08:59:20 14° NNW 09:01:37 10° NNE daylight
03 Oct - 10:41:40 10° NNW 10:43:50 13° NNE 10:46:04 10° NE daylight
03 Oct - 12:23:44 10° NNW 12:27:49 29° NE 12:32:12 10° E daylight
03 Oct - 14:05:59 10° NW 14:10:41 65° WSW 14:15:50 10° SSE daylight
03 Oct - 15:50:55 10° W 15:52:28 11° WSW 15:54:02 10° SW daylight
04 Oct - 04:46:41 10° SSE 04:50:11 24° ESE 04:53:43 10° ENE visible
04 Oct - 06:28:11 10° WSW 06:32:23 52° NW 06:36:43 10° NNE daylight
04 Oct - 08:13:10 10° WNW 08:15:56 16° NNW 08:18:47 10° NNE daylight
04 Oct - 09:58:37 10° NNW 10:00:23 12° N 10:02:11 10° NNE daylight
04 Oct - 11:40:59 10° NNW 11:44:37 22° NNE 11:48:28 10° E daylight
04 Oct - 13:23:03 10° NW 13:27:48 81° NE 13:32:59 10° SE daylight
04 Oct - 15:06:27 10° WNW 15:09:53 19° WSW 15:13:30 10° SSW daylight
05 Oct - 04:05:15 10° SE 04:07:36 14° ESE 04:09:56 10° ENE visible
05 Oct - 05:45:07 10° SW 05:49:25 84° NW 05:53:51 10° NE daylight
05 Oct - 07:29:20 10° WNW 07:32:37 21° NNW 07:36:01 10° NNE daylight
05 Oct - 09:15:13 10° NNW 09:16:55 12° N 09:18:39 10° NNE daylight
05 Oct - 10:58:13 10° NNW 11:01:20 17° NNE 11:04:34 10° ENE daylight
05 Oct - 12:40:13 10° NNW 12:44:49 53° NE 12:49:51 10° ESE daylight
05 Oct - 14:22:58 10° NW 14:27:12 31° WSW 14:31:45 10° S daylight
06 Oct - 05:02:21 10° SSW 05:06:34 58° ESE 05:10:53 10° NE visible
06 Oct - 06:45:40 10° W 06:49:24 28° NW 06:53:15 10° NNE daylight
06 Oct - 08:31:27 10° NW 08:33:27 13° N 08:35:29 10° NNE daylight
06 Oct - 10:15:25 10° NNW 10:17:57 14° NNE 10:20:35 10° NE daylight
06 Oct - 11:57:25 10° NNW 12:01:46 36° NE 12:06:27 10° ESE daylight
06 Oct - 13:39:49 10° NW 13:44:27 49° WSW 13:49:29 10° SSE daylight
07 Oct - 04:19:57 10° S 04:23:49 34° ESE 04:27:46 10° NE visible
07 Oct - 06:02:11 10° WSW 06:06:15 40° NW 06:10:28 10° NNE daylight
07 Oct - 07:47:32 10° NW 07:50:00 15° NNW 07:52:33 10° NNE daylight
07 Oct - 09:32:29 10° NNW 09:34:30 13° N 09:36:37 10° NE daylight
07 Oct - 11:14:39 10° NNW 11:18:36 26° NE 11:22:50 10° E daylight
07 Oct - 12:56:49 10° NW 13:01:36 78° SW 13:06:49 10° SSE daylight
07 Oct - 14:40:54 10° WNW 14:43:30 14° WSW 14:46:12 10° SW daylight
08 Oct - 03:38:01 10° SSE 03:41:10 20° ESE 03:44:21 10° ENE visible
08 Oct - 05:18:58 10° SW 05:23:13 62° NW 05:27:37 10° NE visible
08 Oct - 07:03:38 10° WNW 07:06:38 18° NNW 07:09:45 10° NNE daylight
08 Oct - 08:49:17 10° NNW 08:51:02 12° N 08:52:50 10° NNE daylight
08 Oct - 10:31:53 10° NNW 10:35:22 20° NNE 10:39:01 10° ENE daylight
08 Oct - 12:13:56 10° NW 12:18:40 69° NE 12:23:51 10° SE daylight
08 Oct - 13:57:02 10° WNW 14:00:53 23° WSW 14:04:58 10° SSW daylight
09 Oct - 02:57:11 10° SE 02:58:37 11° ESE 03:00:02 10° E visible
09 Oct - 04:36:00 10° SSW 04:40:18 80° SE 04:44:43 10° NE visible
09 Oct - 06:19:52 10° W 06:23:21 23° NNW 06:26:58 10° NNE daylight
09 Oct - 08:05:44 10° NNW 08:07:34 12° N 08:09:26 10° NNE daylight
09 Oct - 09:49:06 10° NNW 09:52:02 16° NNE 09:55:05 10° ENE daylight
09 Oct - 11:31:06 10° NNW 11:35:40 46° NE 11:40:37 10° ESE daylight
09 Oct - 13:13:42 10° NW 13:18:10 37° WSW 13:22:59 10° S daylight
